Starlink 30059

decayed
NORAD ID: 55714 Int'l Des: 2023-026 Owner: SPXS Country: US Constellation: starlink
LEOCIRCULAR
グループ

Starlink 30059について

説明を読み込み中...

高度履歴

Altitude vs Time

uPlot chart will show altitude changes over time

軌道要素

1 55714U 23026V 23266.96974204 .06887139 88439-5 36322-2 0 9992
2 55714 42.9897 109.1961 0016510 261.7703 98.1309 16.18774564 33745
Epoch: Sep 23, 2023 • Age: 21404 hours

現在のステータス

Position data unavailable
打ち上げ日 Feb 27, 2023
運用期間 3 years
落下予定日 Sep 23, 2023
タイプ internet

技術仕様

分類 Payload
質量 730.00 kg
乾燥質量 700.00 kg
総質量 730.00 kg
長さ 0.30 m
直径 4.10 m
スパン 29.00 m
形状 Box + pan
製造者 SPXS
バスタイプ Starlink V2M
フェーズステータス Unknown Transfer Status
所有者/国 SPXS/US

大規模コンステレーション

Loading constellations...